Location: Passau
(48.5830°N, 13.4830°E)
Time: 21:18:22
(UTC+02:00)

Envisat - Pass Details

Date: 17 April 2024
Orbit: 762 x 764 km, 98.3° (Epoch: 29 May)

Event Time Altitude Azimuth Distance (km) Brightness Sun altitude
Rises 04:29:14 0° 15° (NNE) 3,241 7.1 -15.8°
Reaches altitude 10° 04:31:34 10° 17° (NNE) 2,310 6.3 -15.5°
Maximum altitude 04:36:40 76° 103° (ESE) 792 3.1 -14.8°
Drops below altitude 10° 04:41:43 10° 189° (S) 2,292 5.1 -14.1°
Enters shadow 04:41:47 10° 190° (S) 2,317 5.1 -14.1°
